Tracking 27380 objects as of 6-Jun-2023
HD Live streaming from Space Station
objects crossing your sky now

MOLNIYA 3-47

Track MOLNIYA 3-47 now!
MOLNIYA 3-47 is classified as:


NORAD ID: 23642
Int'l Code: 1995-042A
Perigee: 1,626.7 km
Apogee: 38,509.1 km
Inclination: 64.6 °
Period: 713.1 minutes
Semi major axis: 26438 km
RCS: 13.479 m2 (large)
Launch date: August 9, 1995
Source: Commonwealth of Independent States (former USSR) (CIS)
Launch site: PLESETSK MISSILE AND SPACE COMPLEX (PKMTR)
Your satellite tracking list
Your tracking list is empty




NASA's NSSDC Master Catalog

Two Line Element Set (TLE):
1 23642U 95042A   23154.84057181  .00001193  00000-0  00000-0 0  9990
2 23642  64.5819  32.7196 6975026 282.1158  13.2215  2.01947334204117
Source of the keplerian elements: AFSPC